FW7500 Weather Reports


Display with metric or nautical units.
time (UTC)temp
F
wind
direction
speed
MPH
gust
MPH
rain 1hr
in
rain 24hr
in
rain mn
in
humidity
%
barometer
mb
20260831081555 72 174 1.0 2.0 0.00 0.00 0.00 86 1018.7
20260831080105 71 0 0.0 0.0 0.00 0.00 0.00 86 1018.8
20260831074600 70 360 0.0 2.0 0.00 0.00 0.00 90 1018.8
20260831073104 69 0 0.0 0.0 0.00 0.00 0.00 91 1019.0
20260831071552 70 0 0.0 0.0 0.00 0.00 0.00 90 1019.3
20260831070100 70 0 0.0 0.0 0.00 0.00 0.00 90 1019.4
20260831064556 70 0 0.0 0.0 0.00 0.00 0.00 89 1019.5
20260831063055 70 0 0.0 0.0 0.00 0.00 0.00 89 1019.6
20260831061600 71 0 0.0 0.0 0.00 0.00 0.00 87 1019.7
20260831060109 72 0 0.0 0.0 0.00 0.00 0.00 86 1019.8
20260831054554 71 0 0.0 0.0 0.00 0.00 0.00 88 1019.6
20260831053101 71 0 0.0 0.0 0.00 0.00 0.00 88 1019.6
20260831051617 72 0 0.0 0.0 0.00 0.00 0.00 87 1019.8
20260831050058 72 0 0.0 0.0 0.00 0.00 0.00 87 1019.7
20260831044553 72 0 0.0 0.0 0.00 0.00 0.00 87 1019.7
20260831043100 73 0 0.0 0.0 0.00 0.00 0.00 84 1019.7
20260831041559 73 0 0.0 0.0 0.00 0.00 0.00 83 1019.7
20260831040104 73 0 0.0 2.0 0.00 0.00 0.00 84 1019.7
20260831034555 73 0 0.0 0.0 0.00 0.00 0.00 86 1019.7
20260831033051 73 0 0.0 0.0 0.00 0.00 0.00 87 1019.6
20260831031555 73 0 0.0 0.0 0.00 0.00 0.00 87 1019.9
20260831030111 74 0 0.0 0.0 0.00 0.00 0.00 85 1019.9
20260831024638 74 0 0.0 0.0 0.00 0.00 0.00 83 1019.9
20260831023054 75 0 0.0 0.0 0.00 0.00 0.00 82 1019.9
20260831021554 75 0 0.0 0.0 0.00 0.00 0.00 82 1019.8
20260831020055 75 0 0.0 0.0 0.00 0.00 0.00 81 1019.7
20260831014552 75 0 0.0 0.0 0.00 0.00 0.00 79 1019.7
20260831013111 76 0 0.0 0.0 0.00 0.00 0.00 79 1019.6
20260831011605 77 0 0.0 0.0 0.00 0.00 0.00 77 1019.6
20260831010058 77 0 0.0 0.0 0.00 0.00 0.00 76 1019.6
20260831004557 78 0 0.0 0.0 0.00 0.00 0.00 78 1019.3
20260831003107 79 0 0.0 0.0 0.00 0.00 0.00 75 1019.3
20260831001600 81 0 0.0 0.0 0.00 0.00 0.00 73 1019.2
20260831000059 81 0 0.0 0.0 0.00 0.00 0.00 69 1019.0
20260830234604 83 0 0.0 0.0 0.00 0.00 0.00 68 1018.9
20260830233054 84 0 0.0 0.0 0.00 0.00 0.00 62 1019.0
20260830231601 85 0 0.0 2.0 0.00 0.00 0.00 61 1018.9
20260830230059 86 0 0.0 5.0 0.00 0.00 0.00 57 1018.8
20260830224602 86 360 0.0 4.0 0.00 0.00 0.00 57 1018.5
20260830223104 87 360 1.0 5.0 0.00 0.00 0.00 57 1018.4
20260830221559 87 360 2.0 6.0 0.00 0.00 0.00 55 1018.5
20260830220100 88 360 1.0 6.0 0.00 0.00 0.00 55 1018.9
20260830214602 88 360 2.0 6.0 0.00 0.00 0.00 54 1019.2
20260830213103 88 360 1.0 8.0 0.00 0.00 0.00 55 1019.1
20260830211601 88 360 2.0 6.0 0.00 0.00 0.00 52 1019.5
20260830210056 88 360 2.0 8.0 0.00 0.00 0.00 53 1019.5
20260830204601 88 360 4.0 9.0 0.00 0.00 0.00 52 1019.5
20260830203118 89 360 1.0 5.0 0.00 0.00 0.00 54 1019.8
20260830201559 87 0 0.0 4.0 0.00 0.00 0.00 55 1019.9
20260830200103 89 0 0.0 4.0 0.00 0.00 0.00 53 1020.0
20260830194607 88 360 2.0 5.0 0.00 0.00 0.00 52 1020.1
20260830193057 87 0 0.0 5.0 0.00 0.00 0.00 58 1020.4
20260830191603 87 360 0.0 4.0 0.00 0.00 0.00 55 1020.5
20260830190053 87 287 0.0 8.0 0.00 0.00 0.00 55 1020.7
20260830184559 87 0 0.0 5.0 0.00 0.00 0.00 57 1021.0
20260830183112 86 321 2.0 8.0 0.00 0.00 0.00 57 1021.4
20260830181558 88 360 3.0 10.0 0.00 0.00 0.00 53 1021.4
20260830180108 88 360 4.0 11.0 0.00 0.00 0.00 54 1021.5
20260830174559 88 360 5.0 12.0 0.00 0.00 0.00 50 1021.6
20260830173112 87 360 6.0 11.0 0.00 0.00 0.00 54 1021.7
20260830171617 86 360 4.0 8.0 0.00 0.00 0.00 59 1022.0
20260830170100 86 360 2.0 9.0 0.00 0.00 0.00 59 1021.9
20260830164609 86 309 5.0 12.0 0.00 0.00 0.00 57 1022.0
20260830163108 86 295 2.0 8.0 0.00 0.00 0.00 60 1022.0
20260830161556 86 360 3.0 8.0 0.00 0.00 0.00 63 1022.0
20260830160056 85 360 2.0 7.0 0.00 0.00 0.00 65 1022.2
20260830154600 84 0 0.0 0.0 0.00 0.00 0.00 69 1022.1
20260830153105 82 0 0.0 0.0 0.00 0.00 0.00 70 1022.1
20260830151553 82 0 0.0 0.0 0.00 0.00 0.00 71 1021.9
20260830150055 81 0 0.0 0.0 0.00 0.00 0.00 73 1021.7
20260830144604 80 0 0.0 0.0 0.00 0.00 0.00 74 1021.6
20260830143102 79 0 0.0 0.0 0.00 0.00 0.00 77 1021.5
20260830141602 78 0 0.0 0.0 0.00 0.00 0.00 79 1021.3
20260830140054 77 0 0.0 0.0 0.00 0.00 0.00 81 1021.1
20260830134555 75 0 0.0 0.0 0.00 0.00 0.00 83 1021.0
20260830133141 74 0 0.0 0.0 0.00 0.00 0.00 84 1021.1
20260830131616 72 0 0.0 0.0 0.00 0.00 0.00 86 1021.3
20260830130100 71 0 0.0 0.0 0.00 0.00 0.00 88 1021.3
20260830124611 69 0 0.0 0.0 0.00 0.00 0.00 89 1021.3
20260830123107 68 0 0.0 0.0 0.00 0.00 0.00 90 1021.1
20260830121602 67 0 0.0 0.0 0.00 0.00 0.00 92 1021.0
20260830120059 66 0 0.0 0.0 0.00 0.00 0.00 93 1020.9
20260830114609 65 0 0.0 0.0 0.00 0.00 0.00 95 1020.9
20260830113052 64 0 0.0 0.0 0.00 0.00 0.00 94 1020.8
20260830111559 63 0 0.0 0.0 0.00 0.00 0.00 94 1020.9
20260830110059 63 0 0.0 0.0 0.00 0.00 0.00 93 1020.6
20260830104601 64 0 0.0 0.0 0.00 0.00 0.00 93 1020.6
20260830103053 64 0 0.0 0.0 0.00 0.00 0.00 92 1020.5
20260830101558 64 0 0.0 0.0 0.00 0.00 0.00 92 1020.5
20260830100051 65 0 0.0 0.0 0.00 0.00 0.00 92 1020.4
20260830094557 65 0 0.0 0.0 0.00 0.00 0.00 93 1020.2
20260830093052 65 0 0.0 0.0 0.00 0.00 0.00 94 1020.3
20260830091555 64 0 0.0 0.0 0.00 0.00 0.00 94 1020.4
20260830090100 64 0 0.0 0.0 0.00 0.00 0.00 93 1020.4
20260830084559 65 0 0.0 0.0 0.00 0.00 0.00 93 1020.4
20260830083109 65 0 0.0 0.0 0.00 0.00 0.00 93 1020.5